Flag for U.S.A. Weather past 2 weeks in Irving, Texas, U.S.A.

Now
64 °F

Partly sunny.


Feels Like: 64 °F
Forecast: 58 / 68 °F
Wind: 13 mph from East

Location: Dallas / Fort Worth International Airport

Current Time: Apr 27, 2015 at 10:40:02 AM

Latest Report: Apr 27, 2015 at 9:53 AM


Visibility: 10 mi

Pressure: 29.71 "Hg

Humidity: 81%

Dew point: 58 °F

Location of IrvingLocation

Historic Weather in Irving — Graph

°F

Irving temperature yesterday

Maximum temperature yesterday: 83 °F (at 2:53 PM)
Minimum temperature yesterday: 59 °F (at 6:53 AM)
Average temperature yesterday: 72 °F

Past Weeks' High & Low Weather Summary

 TemperatureHumidityPressure
High87 °F (Apr 25, 2:53 PM)100% (Apr 13, 8:00 AM)30.08 "Hg (Apr 13, 8:00 AM)
Low48 °F (Apr 20, 6:53 AM)23% (Apr 25, 2:53 PM)29.51 "Hg (Apr 26, 7:53 PM)
Average66 °F77%29.85 "Hg
* Reported Apr 12 8:53 AM — Apr 27 8:53 AM, Irving, Weather by CustomWeather, © 2015

Note: Actual official high and low records may vary slightly from our data, if they occured in-between our weather recording intervals... More about our weather records

Advertising

Irving weather history for previous 24 hours

 ConditionsComfort  
Time TempWeatherWind HumidityBarometerVisibility
8:53 AM
Mon, Apr 27
63 °FPartly sunny.14 mph84%29.70 "Hg10 mi
7:53 AM65 °FBroken clouds.12 mph85%29.68 "Hg10 mi
7:00 AM66 °FPassing clouds.13 mph87%29.68 "Hg10 mi
5:53 AM66 °FPartly cloudy.13 mph84%29.63 "Hg10 mi
4:53 AM66 °FMostly cloudy.12 mph75%29.63 "Hg10 mi
3:53 AM69 °FMostly cloudy.26 mph73%29.60 "Hg10 mi
2:53 AM71 °FPartly cloudy.13 mph71%29.61 "Hg10 mi
1:53 AM73 °FOvercast.12 mph51%29.65 "Hg10 mi
12:53 AM71 °FThunderstorms. Mostly cloudy.6 mph63%29.66 "Hg10 mi
11:53 PM
Sun, Apr 26
72 °FThunderstorms. Overcast.10 mph78%29.64 "Hg10 mi
10:53 PM75 °FThunderstorms. Mostly cloudy.14 mph69%29.64 "Hg10 mi
9:53 PM76 °FOvercast.8 mph62%29.59 "Hg10 mi
8:53 PM78 °FCloudy.20 mph56%29.52 "Hg10 mi
7:53 PM78 °FBroken clouds.18 mph60%29.51 "Hg10 mi
6:53 PM77 °FBroken clouds.9 mph60%29.54 "Hg10 mi
5:53 PM78 °FBroken clouds.15 mph62%29.53 "Hg10 mi
4:53 PM79 °FPartly sunny.7 mph54%29.61 "Hg10 mi
3:53 PM79 °FPartly sunny.9 mph58%29.61 "Hg10 mi
2:53 PM83 °FCloudy.8 mph61%29.62 "Hg10 mi
1:53 PM82 °FLight rain. Cloudy.12 mph60%29.68 "Hg10 mi
12:53 PM79 °FPartly sunny.3 mph67%29.67 "Hg10 mi
11:53 AM80 °FScattered clouds.5 mph58%29.66 "Hg10 mi
10:53 AM77 °FScattered clouds.7 mph62%29.67 "Hg10 mi
Weather by CustomWeather, © 2015

See weather overviewHow to use our weather pages